FENGYUN 1C DEB, 31314

Orbit data source: Space-Track

FENGYUN 1C DEB, 31314 is space debris in SSO originally from a launch on Mon, 10 May 1999 UTC launched from the Taiyaun Space Center, China (TSC). Fengyun 1C debris stems from the Chinese weather satellite Fengyun-1C, which was intentionally destroyed by a Chinese anti-satellite missile in 2007. This event dramatically increased the amount of space debris, with thousands of trackable fragments posing hazards to satellites and human spaceflight. The Fengyun 1C debris cloud has become a focal point in discussions about space sustainability and the need for international regulations to prevent the creation of new debris.

Loading next visibility...
Identifier
31314, 1999-025BPS
Orbit
SSO
Country
Flag of CNCN / PRC
Related business
Manufacturer
Unknown
Mission
Spacecraft
Bus & Motor
Unknown
Mass
Unknown
Launch date (UTC)
1999-05-10 (27 years ago)
Launch vehicle
Unknown
Launch site
Taiyaun Space Center, China (TSC)
Object type
Payload
Rocket body
Debris
Shape & HBR
Unknown shape, 0.1 m
Radar Cross Section
Small (<0.1 m²)

Expand to show TLE details & history
Last TLE update: 6 days ago

TLE from 6 days ago
0 FENGYUN 1C DEB
1 31314U 99025BPS 26259.23520539  .00000116  00000-0  96421-4 0  9994
2 31314  98.8403 250.9480 0077534 300.0868  59.2629 14.05155895647110
Epoch: 2026-09-16T05:38Z
TLE epoch observation values (Epoch: 2026-09-16T05:38:41.745Z)
Latitude
0.00004°
Longitude
171.08435°
Altitude
850.458 km
Speed
7.442 km/s
True Right ascension
16h 43m 47s
True Declination
0° 00' 00"
Sunlit
Object was in daylight at epoch
Visualization orbit readout
Latitude
Unknown
Longitude
Unknown
Altitude
Unknown
Speed
Unknown
Apparent Right ascension
Unknown
Apparent Declination
Unknown
Sunlit
N/A
Visualization observer readout
Local Sidereal Time
04:28:28
Azimuth
Unknown
Elevation
Unknown
Doppler factor
Unknown
Orbital elements
Apogee altitude
929.403 km
Perigee altitude
816.958 km
Semi-major axis
7,251.317 km
Eccentricity
0.00775
Inclination
98.8403°
RAAN
250.948°
Arg. of periapsis
300.0868°
True anomaly
60.03034°
Mean anomaly
59.2629°
Eccentric anomaly
59.64624°
Mean motion
3.51494 °/min
Orbital period
102.42 mins
BSTAR
0.000096421
Loading maneuver chart data...
Computing Atmospheric mass density...

Documentation

Showing up to 5 results
|